Regional Weather Roundup
Issued by NWS Wakefield, VA

Home | Current Version | Previous Version | Text Only | Print | Product List | Glossary Off
Versions: 1 2 3 4 5 6 7 8 9 10 11 12 13 14 15 16 17 18 19 20 21 22 23 24 25 26 27 28 29 30 31 32 33 34 35 36 37 38 39 40 41 42 43 44 45 46 47 48 49 50

532
ASUS41 KAKQ 280815
RWRAKQ

REGIONAL WEATHER ROUNDUP
NATIONAL WEATHER SERVICE WAKEFIELD VA
400 AM EDT TUE MAR 28 2017

Note: "fair" indicates few or no clouds below 12,000 feet with no
significant weather and/or obstructions to visibility. * = Denotes
station may not report precipitation (e.g., rain,snow,etc.),
thunder or fog.

VAZ042-051-052>054-056-280900-
NORTHERN VIRGINIA

CITY           SKY/WX    TMP DP  RH WIND       PRES   REMARKS
WASH NATIONAL  CLOUDY    62  57  83 S6        29.85F
DULLES         CLOUDY    58  56  93 CALM      29.85F
FORT BELVOIR   CLOUDY    57  54  87 CALM      29.85F
QUANTICO       CLOUDY    57  54  89 SW8       29.86F
FREDERICKSBRG* CLOUDY    66  59  76 S10       29.86F
STAFFORD*      MOCLDY    64  58  82 S5        29.90F
WARRENTON      NOT AVBL
CULPEPER*      CLOUDY    64  58  82 SW5       29.86F
MANASSAS*        N/A    N/A N/A N/A CALM      29.86F
LEESBURG*      CLOUDY    59  59 100 CALM      29.86F
WINCHESTER     MOCLDY    54  54 100 CALM      29.85F FOG
FRONT ROYAL*   CLOUDY    57  55  94 CALM      29.84F
LURAY*         MOSUNNY   54  54 100 CALM      29.84F
$$

VAZ048-049-060>072-079>083-280900-
CENTRAL AND SOUTH CENTRAL VIRGINIA

CITY           SKY/WX    TMP DP  RH WIND       PRES   REMARKS
RICHMOND       MOCLDY    63  56  78 S12       29.89F
CHESTERFIELD*  PTSUNNY  N/A N/A N/A S6        29.91F
PETERSBURG*    CLOUDY    59  54  84 CALM      29.91F
HANOVER        CLOUDY    66  54  65 S8        29.90F
TAPPAHANNOCK*  CLOUDY    65  49  55 S6        29.90F
QUINTON*       FAIR      64  56  77 MISG      29.90F
CHARLOTTSVILLE CLOUDY    61  59  93 CALM      29.86F
GORDONSVILLE*  CLOUDY    55  55  98 SW3       29.86F
ORANGE*        CLOUDY    61  55  82 SW3       29.88F
LOUISA*          N/A    N/A N/A N/A MISG      29.87F
BUMPASS*       FAIR      64  58  80 SW3       29.88S
FARMVILLE*     CLEAR     64  59  84 S7        29.87F
CREWE*         FAIR      63  61  94 S6        29.89F
FORT PICKETT*  FAIR      61  53  75 S13G18    29.90F
CHASE CITY*    FAIR      63  56  79 CALM      29.90F
CLARKSVILLE*   FAIR      63  55  77 S9        29.91F
SOUTH HILL*    CLEAR     60  55  84 S6        29.97F
LAWRENCEVILLE* FAIR      60  55  81 S6        29.91F
EMPORIA*       CLOUDY    59  54  82 SE5       29.94F
$$

VAZ088>098-280900-
SOUTHEAST VIRGINIA

CITY           SKY/WX    TMP DP  RH WIND       PRES   REMARKS
NORFOLK        CLEAR     62  53  72 S12       29.93F
VIRGINIA BEACH PTCLDY    60  52  74 S8        29.93F
NORFOLK NAVAL  MOCLDY    63  53  70 S9        29.94F
WEST POINT*    MOCLDY    63  54  72 CALM      29.92S
SALUDA*        FAIR      63  56  77 S6        29.90F
NEWPORT NEWS   CLEAR     61  54  77 S9        29.92F
LANGLEY AFB    CLEAR     62  55  75 S10       29.92F
FORT EUSTIS    PTCLDY    60  53  77 S6        29.90F
WILLIAMSBURG*  PTCLDY    63  55  77 CALM      29.93S
HR EXEC AP*    FAIR      61  52  72 S7        29.92F
FRANKLIN*      CLEAR     61  54  77 S7        29.94F
US460-WAKEFLD  CLOUDY    60  54  80 VRB5      29.92F
$$

VAZ020-022-025-037-045-280900-
WEST CENTRAL AND SOUTHWEST VIRGINIA

CITY           SKY/WX    TMP DP  RH WIND       PRES   REMARKS
STAUNTON*      MOCLDY    51  50  97 CALM      29.88F FOG
WAYNESBORO*    PTSUNNY   59  57  93 S9        29.87F
HOT SPRINGS VA CLOUDY    50  50 100 W15       29.93F
LYNCHBURG      PTCLDY    60  57  89 S6        29.89F
DANVILLE       LGT RAIN  63  60  90 SW7       29.92S
SOUTH BOSTON*  FAIR      63  57  81 S7        29.91F
MARTINSVILLE   CLOUDY    54  53  98 W5        29.93F THUNDER FOG
ROANOKE        MOCLDY    61  54  77 CALM      29.90F
BLACKSBURG     CLOUDY    56  52  88 CALM      29.94F
DUBLIN*        CLOUDY    57  53  88 S3        29.93S
MARION*        MOCLDY    55  54  95 SW3       29.94F
HILLSVILLE*    LGT RAIN  54  54 100 S6        29.93S
RICHLANDS*     PTSUNNY   55  52  90 SW7       29.90F
WISE*          CLOUDY    55  50  82 S16       29.90F
ABINGDON*      CLOUDY    57  57 100 SW7       29.91F
$$

MDZ021>025-VAZ099-100-280900-
SOUTHERN MARYLAND AND THE DELMARVA PENINSULA

CITY           SKY/WX    TMP DP  RH WIND       PRES   REMARKS
PATUXENT RIVER CLOUDY    64  57  78 SW7       29.87F
BAY BRIDGE APT CLOUDY    59  54  82 SE5       29.86F
LEONARDTOWN    CLOUDY    63  54  72 SW5       29.88F
DOVER          PTCLDY    60  60  97 S8        29.86F
GEORGETOWN     CLOUDY    60  53  77 S8        29.89F
EASTON         CLOUDY    63  55  73 SW7       29.91F
CAMBRIDGE      MOCLDY    55  54  94 S8        29.88F
SALISBURY      MOCLDY    59  54  83 S7        29.89F
OCEAN CITY     PTCLDY    54  50  86 S7        29.91F
WALLOPS ISLAND CLEAR     52  51  97 S9        29.92F
ACCOMACK*      PTCLDY    57  52  81 S6        29.92F
$$

NCZ012>017-030>032-280900-
NORTH CENTRAL AND EASTERN NORTH CAROLINA

CITY           SKY/WX    TMP DP  RH WIND       PRES   REMARKS
ROANOKE RAPIDS FAIR      61  54  77 SW9       29.93F
RALEIGH        CLOUDY    64  55  72 SW13      29.94F
ELIZABETH CITY CLEAR     59  54  83 S8        29.96F
AHOSKIE*         N/A     60  55  83 S3        29.95F
EDENTON*       CLEAR     58  54  88 CALM      29.97F
CURRITUCK*     CLEAR     60  55  83 S3        29.97S
KILL DEVIL HLS NOT AVBL
MANTEO         CLEAR     58  56  92 SW3       29.98F
CAPE HATTERAS  PTCLDY    67  58  72 SW9       29.99F HAZE
TARBORO*       NOT AVBL
GOLDSBORO      CLOUDY    62  61  97 S5        29.95F
WASHINGTON     PTCLDY    60  56  85 CALM      29.97F
GREENVILLE     CLOUDY    61  57  88 S6        29.98F
NEW BERN       CLOUDY    62  58  86 CALM      29.99S
WILMINGTON     CLOUDY    66  59  78 W6        29.98S
$$

VAZ048-280900-
ELSEWHERE

CITY           SKY/WX    TMP DP  RH WIND       PRES   REMARKS
HARRISBURG PA  CLOUDY    49  49 100 W5        29.87F FOG
BALTIMORE      PTCLDY    52  52 100 CALM      29.86F
ANNAPOLIS      CLOUDY    54  52  93 E5        29.85F
ANDREWS AFB    CLOUDY    64  56  76 S9        29.84F
PHILADELPHIA   CLOUDY    51  50  96 NE7       29.91F FOG
HENDERSON NC   CLOUDY    60  52  74 SW10      29.93S
GREENSBORO     CLOUDY    61  60  97 S10       29.90F
ROCKY MOUNT    CLEAR     61  56  83 S7        29.95F
$$

VAZ100-280900-
MARINE

STATION/POSITION TIME  TEMP    WIND        PRES    WAVE   SWELL
                       AIR SEA DIR/SP/G            HT/PER HT/PER
                 (UTC) (F)     (DEG/KT/KT) (MB)    (FT/S) (FT/S)
CAPE MAY NJ      0748   53 45  160/  8/ 11 1012.0F
LEWES DE         0748   62 45  200/  6/  9 1011.9F
OCEAN-CITY-INLET 0748   48 47  200/  9/ 11 1013.3F
WACHAPREAGUE VA  0748   55 58  210/  4/  5 1012.9F
THOMAS POINT MD  0800   54 46  170/  9/  9   N/A
GOOSES REEF MD   0750   53     150/  8/  8 1012.0F
COVE POINT MD    0748   64     220/ 12/ 15 1012.1F
SOLOMONS ISLAND  0748          220/ 10/ 12   N/A
BISHOPS HEAD MD  0748   53 53  160/  7/  8 1012.5F
PINEY POINT MD   0748          240/ 11/ 11   N/A
POTOMAC MD       0750   52     140/  4/  6 1011.1F
CAMBRIDGE MD     0748   59 47  160/  3/  6 1011.0F
LEWISETTA VA     0748   65 53  220/  9/ 11 1011.6F
RAPPAHANNOCK LGT 0748          180/ 13/ 14 1013.5F
STINGRAY PT      0750   54     200/ 10/ 10 1012.9F
YORK RVR RNG VA  0748   59     200/  9/ 10 1012.4F
YORKTOWN VA      0748   63 50  210/  9/ 12 1012.7F
JAMESTOWN VA     0750   63     210/ 10/ 14   N/A
DOMINION TERM VA 0748   60     200/  9/ 11 1013.4F
KIPTOPEKE VA     0748      51  160/  9/  9   N/A
CHES BAY BRIDGE  0748   61 50  210/ 12/ 13 1013.4F
CAPE HENRY VA    0748   63     190/ 10/ 15   N/A
WILLOUBY STN VA  0748   63     200/ 12/ 14 1014.3F
S CRANEY ISL VA  0748   61     190/  7/ 10 1013.3F
CAPE HENRY BUOY  0742      51                N/A     3/ 9   2/17
CAPE CHARLES BUO 0751      48                N/A     3/ 9   2/17
OFFSHORE WE BUOY 0751      51                N/A     4/ 9   2/11
64NM E OF VA BCH 0750   54 49  210/  8/  8 1014.9F   4/ 9   3/ 9
DUCK PIER NC     0748   62 49  210/  8/ 10 1014.2F
44100 DUCK FRF   0735      52                N/A     3/ 9   2/11
44056 DUCK FRF   0730      50                N/A     3/ 9   2/11
OREGON INLET NC  0748          200/  9/ 10   N/A
HATTERAS NC      0748   65 62  220/  7/  9 1015.2F
DIAMOND SHLS NC  0750   71 74  220/ 17/ 19 1015.4F   5/10   5/10
CAPE LOOKOUT NC  0700   66     210/  7/  8 1015.8F
$$




USA.gov is the U.S. government's official web portal to all federal, state and local government web resources and services.